Scappoose, OR

2:20 PM PST on December 07, 2016 (GMT -0800)
Scappoose Industrial

Weather History for KSPB - January, 2014

Change the Weather History Date:

Monday, January 27, 2014

  Actual Average Record
Temperature  
Mean Temperature 36 °F -  
Max Temperature 42 °F - 56 °F (2016)
Min Temperature 28 °F - 24 °F (2007)
Degree Days  
Heating Degree Days 30    
Month to date heating degree days 670  
Since 1 July heating degree days 2806  
Cooling Degree Days 0    
Month to date cooling degree days 0  
Year to date cooling degree days 0  
Moisture  
Dew Point 27 °F    
Average Humidity 69    
Maximum Humidity 85    
Minimum Humidity 53    
Precipitation  
Precipitation 0.01 in - 0.39 in (2006)
Month to date precipitation 2.05  
Year to date precipitation 2.05  
Sea Level Pressure  
Sea Level Pressure 30.22 in    
Wind  
Wind Speed 6 mph (South)    
Max Wind Speed 10 mph    
Max Gust Speed 15 mph    
Visibility 10 miles    
Events Rain    
T = Trace of Precipitation, MM = Missing Value Source: NWS Daily Summary

Daily Weather History Graph

Daily Weather History Graph

Search for Another Location

Airport or City:

Trip Planner

Search our weather history database for the weather conditions in past years. The results will help you decide how hot, cold, wet, or windy it might be!

Date:

Astronomy

Jan. 27, 2014 Rise Set
Actual Time 7:38 AM PST 5:10 PM PST
Civil Twilight 7:06 AM PST 5:42 PM PST
Nautical Twilight 6:30 AM PST 6:18 PM PST
Astronomical Twilight 5:55 AM PST 6:53 PM PST
Moon 4:28 AM PST (1/27) 1:59 PM PST (1/27)
Length of Visible Light 10h 36m
Length of Day
9h 31m
Waning Crescent, 14% of the Moon is Illuminated
Jan 27
Waning Crescent
Jan 30
New
Feb 6
First Quarter
Feb 14
Full
Feb 22
Last Quarter

Hourly Weather History & Observations

Time (PST) Temp. Windchill Dew Point Humidity Pressure Visibility Wind Dir Wind Speed Gust Speed Precip Events Conditions
12:53 AM 30.0 °F 26.5 °F 26.1 °F 85% 30.15 in 10.0 mi SW 3.5 mph - N/A   Clear
1:53 AM 30.0 °F 25.2 °F 27.0 °F 88% 30.15 in 10.0 mi SSW 4.6 mph - N/A   Clear
2:53 AM 34.0 °F 28.8 °F 26.1 °F 73% 30.17 in 10.0 mi South 5.8 mph - N/A   Clear
3:53 AM 32.0 °F 27.5 °F 26.1 °F 79% 30.18 in 10.0 mi SSW 4.6 mph - N/A   Clear
4:53 AM 33.1 °F 30.0 °F 26.1 °F 75% 30.18 in 10.0 mi SSW 3.5 mph - N/A   Clear
5:53 AM 33.1 °F 27.7 °F 26.1 °F 75% 30.19 in 10.0 mi SSW 5.8 mph - N/A   Clear
6:53 AM 34.0 °F 29.8 °F 26.1 °F 73% 30.19 in 10.0 mi SSW 4.6 mph - N/A   Clear
7:53 AM 34.0 °F 28.0 °F 27.0 °F 75% 30.20 in 10.0 mi SSW 6.9 mph - N/A   Clear
8:53 AM 34.0 °F 31.0 °F 28.0 °F 79% 30.21 in 10.0 mi South 3.5 mph - N/A   Clear
9:53 AM 37.9 °F 32.7 °F 26.1 °F 62% 30.22 in 10.0 mi South 6.9 mph - N/A   Clear
10:53 AM 39.9 °F 36.7 °F 27.0 °F 60% 30.24 in 10.0 mi South 4.6 mph - N/A   Clear
11:53 AM 39.9 °F 35.1 °F 27.0 °F 60% 30.24 in 10.0 mi SSW 6.9 mph - N/A   Clear
12:53 PM 42.1 °F 38.4 °F 27.0 °F 55% 30.23 in 10.0 mi South 5.8 mph - N/A   Clear
1:53 PM 41.0 °F 35.8 °F 27.0 °F 57% 30.22 in 10.0 mi South 8.1 mph - N/A   Clear
2:53 PM 42.1 °F 36.6 °F 27.0 °F 55% 30.22 in 10.0 mi South 9.2 mph - N/A   Clear
3:53 PM 41.0 °F 38.0 °F 27.0 °F 57% 30.24 in 10.0 mi Variable 4.6 mph - N/A   Mostly Cloudy
4:53 PM 41.0 °F 36.4 °F 27.0 °F 57% 30.23 in 10.0 mi South 6.9 mph - N/A   Scattered Clouds
5:53 PM 41.0 °F 37.1 °F 27.0 °F 57% 30.24 in 10.0 mi South 5.8 mph - N/A   Overcast
6:53 PM 41.0 °F 38.0 °F 27.0 °F 57% 30.25 in 10.0 mi South 4.6 mph - N/A   Overcast
7:53 PM 39.9 °F 34.5 °F 27.0 °F 60% 30.25 in 10.0 mi South 8.1 mph - N/A   Overcast
8:53 PM 39.9 °F 35.1 °F 28.0 °F 63% 30.25 in 10.0 mi South 6.9 mph - 0.00 in Rain Light Rain
9:53 PM 39.0 °F 36.8 °F 30.0 °F 70% 30.25 in 10.0 mi Variable 3.5 mph - 0.00 in   Overcast
10:53 PM 37.9 °F 34.4 °F 32.0 °F 79% 30.26 in 10.0 mi SSW 4.6 mph - 0.01 in Rain Light Rain
11:53 PM 37.9 °F 35.5 °F 30.9 °F 76% 30.26 in 10.0 mi South 3.5 mph - 0.00 in   Overcast